GW5996 Weather Reports


time (UTC)temp
F
wind
direction
speed
knots
gust
knots
rain 1hr
in
rain 24hr
in
rain mn
in
humidity
%
barometer
mb
20260507201415 49 239 7.0 8.7 0.00 0.32 0.32 99 1000.8
20260507200912 49 245 7.8 8.7 0.00 0.32 0.32 99 1001.1
20260507200408 49 242 5.2 8.7 0.00 0.32 0.32 99 1001.1
20260507195904 50 237 7.8 8.7 0.00 0.32 0.32 99 1000.9
20260507195402 50 243 5.2 7.0 0.00 0.32 0.32 99 1000.9
20260507194859 50 247 7.0 7.0 0.00 0.32 0.32 99 1000.8
20260507194355 50 240 7.0 9.6 0.00 0.32 0.32 99 1001.1
20260507193851 50 237 6.1 7.8 0.00 0.32 0.32 99 1000.8
20260507193349 51 229 6.1 6.1 0.00 0.32 0.32 99 1000.9
20260507192845 51 240 5.2 6.1 0.00 0.32 0.32 99 1000.8
20260507192341 51 228 5.2 6.1 0.00 0.32 0.32 99 1000.7
20260507191838 51 259 3.5 5.2 0.00 0.32 0.32 99 1000.7
20260507191334 51 245 5.2 7.0 0.00 0.32 0.32 99 1001.0
20260507190831 51 267 6.1 9.6 0.00 0.32 0.32 99 1000.8
20260507190329 51 244 5.2 9.6 0.00 0.32 0.32 98 1000.8
20260507185828 52 244 7.8 12.2 0.00 0.32 0.32 98 1000.8
20260507185324 54 216 7.0 11.3 0.00 0.32 0.32 99 1000.5
20260507184822 54 214 4.3 8.7 0.00 0.32 0.32 99 1000.4
20260507184320 54 186 7.8 11.3 0.00 0.32 0.32 99 1000.7
20260507183816 54 203 8.7 13.0 0.00 0.32 0.32 99 1000.7
20260507183313 54 170 7.8 13.9 0.00 0.32 0.32 99 1000.6
20260507182811 54 183 12.2 13.0 0.00 0.32 0.32 99 1000.1
20260507182307 53 175 12.2 13.9 0.00 0.32 0.32 99 1000.3
20260507181802 53 171 8.7 13.9 0.00 0.32 0.32 99 999.7
20260507181259 53 147 7.8 13.9 0.00 0.32 0.32 99 999.5
20260507180755 53 166 11.3 15.6 0.00 0.32 0.32 99 1000.7
20260507180253 53 170 12.2 13.0 0.05 0.32 0.32 99 1000.4
20260507175748 53 179 9.6 13.9 0.05 0.32 0.32 99 1001.1
20260507175245 53 196 8.7 13.9 0.00 0.31 0.31 99 1001.7
20260507174742 53 174 14.8 19.1 0.00 0.31 0.31 99 1001.3
20260507174240 53 175 10.4 16.5 0.02 0.31 0.31 99 1000.8
20260507173738 53 175 13.9 19.1 0.02 0.31 0.31 99 1000.8
20260507173234 53 165 10.4 15.6 0.02 0.31 0.31 99 1000.2
20260507172731 53 163 7.8 15.6 0.05 0.31 0.31 99 1000.0
20260507172228 53 151 11.3 15.6 0.07 0.30 0.30 99 1000.5
20260507171728 53 171 11.3 13.9 0.05 0.29 0.29 99 1001.0
20260507171226 53 172 8.7 17.4 0.05 0.29 0.29 99 1000.8
20260507170722 53 170 11.3 13.9 0.02 0.28 0.28 99 1000.9
20260507170219 53 184 11.3 15.6 0.00 0.28 0.28 99 1001.5
20260507165715 54 168 12.2 15.6 0.02 0.28 0.28 98 1001.3
20260507165211 54 178 12.2 15.6 0.02 0.28 0.28 98 1001.7
20260507164707 54 173 13.0 17.4 0.00 0.28 0.28 98 1001.5
20260507164205 54 189 13.9 15.6 0.00 0.28 0.28 98 1001.1
20260507163701 54 171 8.7 14.8 0.07 0.28 0.28 98 1000.9
20260507163159 54 176 12.2 14.8 0.14 0.27 0.27 98 1001.2
20260507162655 54 170 15.6 15.6 0.17 0.26 0.26 98 1001.3
20260507162151 54 196 7.0 12.2 0.14 0.25 0.25 98 1001.9
20260507161648 54 174 8.7 16.5 0.14 0.24 0.24 98 1002.0
20260507161144 54 166 11.3 13.9 0.12 0.22 0.22 98 1001.9
20260507160641 54 166 11.3 13.9 0.07 0.21 0.21 98 1002.1
20260507160138 54 166 13.0 14.8 0.05 0.20 0.20 98 1001.6
20260507155633 54 193 6.1 13.0 0.05 0.20 0.20 98 1001.8
20260507155130 54 190 10.4 13.9 0.05 0.19 0.19 98 1001.8
20260507154626 54 186 9.6 13.9 0.05 0.19 0.19 98 1001.9
20260507154124 54 192 10.4 14.8 0.05 0.18 0.18 98 1002.4
20260507153620 54 196 7.8 12.2 0.07 0.18 0.18 98 1002.5
20260507153117 54 194 9.6 17.4 0.12 0.18 0.18 97 1003.0
20260507152613 53 198 7.8 18.2 0.14 0.17 0.17 97 1003.3
20260507152109 53 221 7.8 14.8 0.21 0.16 0.16 97 1003.1
20260507151605 53 209 10.4 14.8 0.24 0.14 0.14 97 1003.4
20260507151103 53 207 6.1 14.8 0.28 0.12 0.12 96 1003.0
20260507150600 53 194 6.1 16.5 0.35 0.10 0.10 95 1003.5
20260507150056 54 216 10.4 14.8 0.24 0.06 0.06 94 1003.4
20260507145551 54 223 9.6 13.9 0.14 0.03 0.03 93 1003.0
20260507145050 55 212 7.8 14.8 0.07 0.02 0.02 91 1002.8
20260507144546 56 202 12.2 13.9 0.00 0.01 0.01 90 1002.7
20260507144044 57 208 6.1 13.9 0.00 0.01 0.01 89 1002.9
20260507143540 57 213 13.0 17.4 0.00 0.01 0.01 89 1002.8
20260507143038 57 201 17.4 17.4 0.00 0.01 0.01 89 1003.1
20260507142533 57 201 11.3 13.0 0.00 0.01 0.01 89 1002.7
20260507142030 57 196 8.7 14.8 0.00 0.01 0.01 89 1002.9
20260507141526 57 203 8.7 13.0 0.00 0.01 0.01 88 1002.9
20260507141023 57 195 9.6 16.5 0.00 0.01 0.01 88 1002.7
20260507140520 58 177 15.6 20.9 0.00 0.01 0.01 88 1002.4
20260507140018 57 181 12.2 19.1 0.00 0.01 0.01 89 1002.3
20260507135514 57 168 20.0 20.9 0.00 0.01 0.01 89 1002.4
20260507135011 57 183 13.0 20.9 0.00 0.01 0.01 89 1002.3
20260507134508 57 174 14.8 20.0 0.00 0.01 0.01 89 1002.7
20260507134003 57 175 9.6 21.7 0.00 0.01 0.01 89 1002.5
20260507133459 57 177 12.2 22.6 0.00 0.01 0.01 89 1002.8
20260507132958 57 175 15.6 25.2 0.00 0.01 0.01 89 1003.0
20260507132454 57 183 20.9 26.1 0.00 0.01 0.01 89 1002.9
20260507131951 57 173 20.0 26.9 0.00 0.01 0.01 89 1003.1
20260507131448 57 183 16.5 26.1 0.00 0.01 0.01 90 1002.8
20260507130944 57 176 19.1 23.5 0.00 0.01 0.01 90 1003.0
20260507130441 56 179 15.6 21.7 0.00 0.01 0.01 89 1003.3
20260507125940 56 184 16.5 24.3 0.00 0.01 0.01 89 1003.4
20260507125438 57 180 19.1 24.3 0.00 0.01 0.01 89 1003.0
20260507124935 57 187 16.5 23.5 0.00 0.01 0.01 89 1003.4
20260507124431 57 195 19.1 27.8 0.00 0.01 0.01 89 1003.4
20260507123930 56 181 17.4 25.2 0.00 0.01 0.01 90 1003.5
20260507123427 56 181 20.0 22.6 0.00 0.01 0.01 89 1003.6
20260507122923 56 176 14.8 26.1 0.00 0.01 0.01 89 1003.3
20260507122418 56 166 19.1 23.5 0.00 0.01 0.01 90 1003.2
20260507121915 56 203 20.9 27.8 0.00 0.01 0.01 90 1003.5
20260507121410 56 187 13.9 28.7 0.00 0.01 0.01 90 1003.3
20260507120907 56 192 16.5 26.9 0.00 0.01 0.01 90 1003.5
20260507120403 56 185 15.6 24.3 0.00 0.01 0.01 90 1003.4
20260507115900 56 175 17.4 67.8 0.00 0.01 0.01 90 1003.5
20260507115356 55 198 13.0 19.1 0.00 0.01 0.01 90 1003.5
20260507114851 55 180 15.6 20.0 0.00 0.01 0.01 89 1003.6
20260507114349 55 189 8.7 20.0 0.00 0.01 0.01 89 1003.7
20260507113846 55 188 14.8 21.7 0.00 0.01 0.01 89 1003.5
20260507113343 55 189 15.6 19.1 0.00 0.01 0.01 89 1004.0
20260507112840 55 176 19.1 23.5 0.00 0.01 0.01 89 1003.9
20260507112337 55 190 14.8 26.1 0.00 0.01 0.01 89 1003.7
20260507111836 55 181 10.4 22.6 0.00 0.01 0.01 88 1003.7
20260507111332 55 165 13.9 24.3 0.00 0.01 0.01 88 1003.6
20260507110828 55 175 14.8 21.7 0.00 0.01 0.01 88 1003.8
20260507110324 55 167 15.6 24.3 0.00 0.01 0.01 87 1004.0
20260507105821 55 184 14.8 26.1 0.00 0.01 0.01 87 1003.9
20260507105318 55 168 13.9 24.3 0.00 0.01 0.01 87 1003.8
20260507104815 55 180 21.7 22.6 0.00 0.01 0.01 87 1004.0
20260507104311 55 183 13.0 22.6 0.00 0.01 0.01 87 1004.1
20260507103807 55 329 10.4 26.9 0.00 0.01 0.01 85 1004.2
20260507103303 55 176 26.1 31.3 0.00 0.01 0.01 84 1004.3
20260507102800 55 184 20.9 31.3 0.00 0.01 0.01 83 1004.3
20260507102257 56 176 22.6 23.5 0.00 0.01 0.01 83 1004.5
20260507101754 56 178 17.4 26.9 0.00 0.01 0.01 82 1004.3
20260507101253 55 177 21.7 24.3 0.00 0.01 0.01 83 1004.8
20260507100751 55 178 23.5 23.5 0.00 0.01 0.01 84 1004.6
20260507100249 55 184 14.8 17.4 0.00 0.01 0.01 84 1004.8
20260507095747 54 203 17.4 23.5 0.00 0.01 0.01 84 1004.8
20260507095243 54 172 12.2 25.2 0.00 0.01 0.01 83 1004.6
20260507094740 54 182 13.9 24.3 0.00 0.01 0.01 83 1004.6
20260507094237 54 161 13.0 24.3 0.00 0.01 0.01 83 1004.7
20260507093734 54 164 23.5 24.3 0.00 0.01 0.01 83 1004.6
20260507093232 54 160 18.2 21.7 0.00 0.01 0.01 82 1004.8
20260507092730 54 165 10.4 22.6 0.00 0.01 0.01 81 1004.8
20260507092226 55 165 14.8 24.3 0.00 0.01 0.01 81 1004.9
20260507091722 55 168 18.2 23.5 0.00 0.01 0.01 81 1004.8
20260507091219 55 172 17.4 27.8 0.00 0.01 0.01 80 1005.0
20260507090719 55 170 15.6 23.5 0.00 0.01 0.01 80 1004.9
20260507090216 55 167 17.4 22.6 0.00 0.01 0.01 80 1005.0
20260507085713 54 170 15.6 21.7 0.00 0.01 0.01 81 1005.0
20260507085210 54 163 20.9 21.7 0.00 0.01 0.01 80 1005.2
20260507084707 54 150 15.6 26.1 0.00 0.01 0.01 80 1005.0
20260507084203 54 152 13.0 23.5 0.00 0.01 0.01 80 1005.1
20260507083701 54 157 12.2 23.5 0.00 0.01 0.01 79 1005.5
20260507083157 54 166 19.1 22.6 0.00 0.01 0.01 80 1005.2
20260507082653 54 157 13.9 21.7 0.00 0.01 0.01 80 1005.8
20260507082149 54 160 19.1 24.3 0.00 0.01 0.01 81 1006.0
20260507081647 54 159 12.2 14.8 0.00 0.01 0.01 80 1006.0
20260507081143 54 161 12.2 15.6 0.00 0.01 0.01 80 1006.1
20260507080639 55 165 11.3 17.4 0.00 0.01 0.01 80 1006.3
20260507080136 55 173 11.3 18.2 0.00 0.01 0.01 79 1006.6
20260507075631 54 172 14.8 15.6 0.00 0.01 0.01 80 1006.6
20260507075127 54 164 12.2 15.6 0.00 0.01 0.01 81 1006.8
20260507074624 54 156 13.0 14.8 0.00 0.01 0.01 80 1006.7
20260507074123 54 179 11.3 19.1 0.00 0.01 0.01 81 1006.8
20260507073618 54 161 13.9 14.8 0.00 0.01 0.01 82 1007.0
20260507073115 54 160 10.4 14.8 0.00 0.01 0.01 82 1007.2
20260507072613 54 164 13.9 15.6 0.00 0.01 0.01 83 1007.6
20260507072109 54 168 7.8 16.5 0.00 0.01 0.01 83 1007.5
20260507071607 54 169 11.3 14.8 0.00 0.01 0.01 83 1007.6
20260507071103 54 152 8.7 13.9 0.00 0.01 0.01 84 1007.4
20260507070600 54 162 11.3 16.5 0.00 0.01 0.01 83 1007.4
20260507070057 54 156 14.8 17.4 0.00 0.01 0.01 83 1007.4
20260507065554 54 160 9.6 18.2 0.02 0.01 0.01 84 1007.5
20260507065051 54 161 20.0 22.6 0.05 0.01 0.01 83 1007.2
20260507064549 55 165 19.1 29.5 0.02 0.00 0.00 81 1008.2
20260507064047 55 180 13.9 23.5 0.00 0.00 0.00 79 1008.3
20260507063544 55 173 18.2 22.6 0.00 0.00 0.00 77 1008.5
20260507063041 55 180 17.4 22.6 0.00 0.00 0.00 77 1008.5
20260507062538 56 170 13.0 20.0 0.00 0.00 0.00 77 1008.2
20260507062035 56 162 13.9 20.9 0.00 0.00 0.00 76 1008.4
20260507061533 56 179 15.6 22.6 0.00 0.00 0.00 76 1009.0
20260507061031 56 174 17.4 29.5 0.00 0.00 0.00 76 1008.6
20260507060529 56 173 15.6 26.9 0.00 0.00 0.00 76 1009.0
20260507060025 56 193 16.5 22.6 0.00 0.00 0.00 77 1008.9
20260507055525 56 164 16.5 24.3 0.00 0.00 0.00 76 1008.8
20260507055022 56 173 15.6 23.5 0.00 0.00 0.00 76 1008.9
20260507054518 56 173 15.6 23.5 0.00 0.00 0.00 76 1009.2
20260507054015 56 179 20.9 25.2 0.00 0.00 0.00 77 1009.3
20260507053513 56 185 14.8 26.9 0.00 0.00 0.00 76 1009.3
20260507053012 56 178 19.1 26.1 0.00 0.00 0.00 77 1009.3
20260507052509 55 172 16.5 22.6 0.00 0.00 0.00 77 1009.4
20260507052005 55 171 19.1 22.6 0.00 0.00 0.00 78 1009.2
20260507051503 55 167 11.3 20.0 0.00 0.00 0.00 77 1009.3
20260507051000 55 172 13.0 21.7 0.00 0.00 0.00 77 1009.5
20260507050456 55 170 18.2 20.9 0.00 0.00 0.00 77 1010.3
20260507045953 55 179 20.9 20.9 0.00 0.00 0.00 77 1010.2
20260507045449 55 188 14.8 24.3 0.00 0.00 0.00 78 1010.2
20260507044947 55 192 17.4 20.0 0.00 0.00 0.00 78 1010.5
20260507044443 55 191 13.0 19.1 0.00 0.00 0.00 78 1010.6
20260507043940 55 180 13.0 24.3 0.00 0.00 0.00 77 1010.4
20260507043436 56 173 17.4 21.7 0.00 0.00 0.00 76 1010.7
20260507042932 56 194 15.6 25.2 0.00 0.00 0.00 77 1010.5
20260507042429 56 180 20.0 22.6 0.00 0.00 0.00 77 1010.6
20260507041925 56 156 18.2 22.6 0.00 0.00 0.00 76 1010.8
20260507041422 56 186 12.2 21.7 0.00 0.00 0.00 77 1010.8
20260507040919 56 190 18.2 26.9 0.00 0.00 0.00 77 1010.9
20260507040415 56 172 18.2 24.3 0.00 0.00 0.00 77 1010.5
20260507035911 56 164 13.0 22.6 0.00 0.00 0.00 77 1010.7
20260507035407 57 173 15.6 24.3 0.00 0.00 0.00 77 1010.4
20260507034904 57 170 17.4 22.6 0.00 0.00 0.00 77 1010.9
20260507034401 57 174 19.1 22.6 0.00 0.00 0.00 78 1010.9
20260507033859 57 173 13.0 20.9 0.00 0.00 0.00 78 1011.1
20260507033357 57 166 14.8 24.3 0.00 0.00 0.00 78 1011.0
20260507032854 57 172 14.8 24.3 0.00 0.00 0.00 78 1011.1
20260507032350 57 183 16.5 22.6 0.00 0.00 0.00 78 1011.3
20260507031846 57 171 16.5 23.5 0.00 0.00 0.00 78 1011.5
20260507031343 57 182 17.4 21.7 0.00 0.00 0.00 78 1011.8
20260507030840 57 198 17.4 26.9 0.00 0.00 0.00 77 1011.8
20260507030338 58 188 16.5 24.3 0.00 0.00 0.00 78 1012.1
20260507025834 58 180 15.6 24.3 0.00 0.00 0.00 77 1012.1
20260507025332 58 192 20.9 24.3 0.00 0.00 0.00 77 1011.9
20260507024829 58 190 20.0 26.1 0.00 0.00 0.00 77 1012.2
20260507024326 58 181 14.8 24.3 0.00 0.00 0.00 77 1012.2
20260507023822 58 197 20.0 23.5 0.00 0.00 0.00 77 1012.3
20260507023319 58 191 17.4 20.9 0.00 0.00 0.00 77 1012.3
20260507022817 59 198 16.5 22.6 0.00 0.00 0.00 76 1012.6
20260507022313 59 187 16.5 22.6 0.00 0.00 0.00 76 1012.5
20260507021809 59 195 17.4 26.1 0.00 0.00 0.00 76 1012.6
20260507021305 59 194 16.5 24.3 0.00 0.00 0.00 76 1012.6
20260507020803 59 177 17.4 23.5 0.00 0.00 0.00 76 1012.7
20260507020259 59 190 11.3 22.6 0.00 0.00 0.00 77 1013.3
20260507015756 59 196 14.8 20.0 0.00 0.00 0.00 77 1013.1
20260507015254 58 190 13.0 19.1 0.00 0.00 0.00 78 1013.1
20260507014751 58 189 11.3 17.4 0.00 0.00 0.00 79 1013.4
20260507014247 58 201 13.9 19.1 0.00 0.00 0.00 78 1013.3
20260507013743 58 185 16.5 20.9 0.00 0.00 0.00 78 1013.4
20260507013241 59 198 17.4 20.9 0.00 0.00 0.00 77 1013.5
20260507012738 59 195 14.8 19.1 0.00 0.00 0.00 77 1013.7
20260507012233 59 201 14.8 22.6 0.00 0.00 0.00 77 1013.6
20260507011732 59 197 14.8 20.0 0.00 0.00 0.00 77 1013.6
20260507011228 59 203 14.8 22.6 0.00 0.00 0.00 77 1013.8
20260507010727 59 194 19.1 20.9 0.00 0.00 0.00 77 1013.5
20260507010223 59 190 9.6 19.1 0.00 0.00 0.00 77 1013.5
20260507005721 59 197 20.0 21.7 0.00 0.00 0.00 76 1013.4
20260507005217 60 201 20.9 26.1 0.00 0.00 0.00 76 1013.5
20260507004714 60 218 16.5 24.3 0.00 0.00 0.00 76 1013.5
20260507004212 60 195 16.5 22.6 0.00 0.00 0.00 76 1013.4
20260507003708 60 196 15.6 20.9 0.00 0.00 0.00 75 1013.5
20260507003203 60 208 18.2 24.3 0.00 0.00 0.00 75 1013.7
20260507002659 60 194 13.9 22.6 0.00 0.00 0.00 75 1013.5
20260507002155 60 215 12.2 23.5 0.00 0.00 0.00 75 1013.3
20260507001652 61 176 21.7 26.1 0.00 0.00 0.00 74 1013.5
20260507001150 61 192 12.2 24.3 0.00 0.00 0.00 74 1013.1
20260507000646 61 201 17.4 22.6 0.00 0.00 0.00 74 1013.2
20260507000141 61 199 20.0 26.9 0.00 0.00 0.00 73 1013.0
20260506235639 61 192 20.9 26.1 0.00 0.00 0.00 73 1012.7
20260506235139 61 203 16.5 27.8 0.00 0.00 0.00 72 1012.7
20260506234637 61 182 19.1 25.2 0.00 0.00 0.00 73 1012.9
20260506234134 61 197 14.8 26.1 0.00 0.00 0.00 72 1013.0
20260506233631 61 202 23.5 25.2 0.00 0.00 0.00 72 1013.1
20260506233128 61 204 20.0 26.1 0.00 0.00 0.00 71 1012.9
20260506232624 61 199 24.3 26.1 0.00 0.00 0.00 71 1012.9
20260506232119 61 203 16.5 22.6 0.00 0.00 0.00 71 1012.9
20260506231617 62 197 19.1 24.3 0.00 0.00 0.00 71 1013.0
20260506231115 62 201 13.9 25.2 0.00 0.00 0.00 70 1012.9
20260506230611 62 210 16.5 21.7 0.00 0.00 0.00 70 1012.8
20260506230109 62 195 20.9 30.4 0.00 0.00 0.00 69 1012.8
20260506225605 62 199 17.4 22.6 0.00 0.00 0.00 69 1012.9
20260506225101 62 199 21.7 26.9 0.00 0.00 0.00 68 1013.0
20260506224558 62 194 20.0 27.8 0.00 0.00 0.00 68 1012.8
20260506224055 62 202 17.4 22.6 0.00 0.00 0.00 68 1012.7
20260506223551 62 199 15.6 23.5 0.00 0.00 0.00 67 1012.7
20260506223047 63 195 18.2 26.9 0.00 0.00 0.00 67 1012.5
20260506222544 63 205 17.4 23.5 0.00 0.00 0.00 66 1012.6
20260506222040 63 188 20.0 27.8 0.00 0.00 0.00 65 1012.8
20260506221538 63 197 15.6 24.3 0.00 0.00 0.00 65 1012.8
20260506221036 64 207 15.6 26.9 0.00 0.00 0.00 64 1012.7
20260506220532 64 196 17.4 24.3 0.00 0.00 0.00 64 1012.5
20260506220027 64 193 17.4 24.3 0.00 0.00 0.00 62 1012.7
20260506215525 65 209 26.1 31.3 0.00 0.00 0.00 61 1012.5
20260506215020 65 202 20.0 26.9 0.00 0.00 0.00 61 1012.5
20260506214518 65 200 11.3 33.0 0.00 0.00 0.00 60 1012.3
20260506214015 65 202 16.5 25.2 0.00 0.00 0.00 60 1012.5
20260506213513 65 201 18.2 26.1 0.00 0.00 0.00 59 1012.5
20260506213009 65 196 14.8 20.9 0.00 0.00 0.00 60 1012.2
20260506212506 65 204 16.5 26.9 0.00 0.00 0.00 60 1012.3
20260506212001 66 201 15.6 27.8 0.00 0.00 0.00 59 1012.2
20260506211457 66 215 17.4 26.9 0.00 0.00 0.00 58 1012.3
20260506210954 66 203 13.9 24.3 0.00 0.00 0.00 59 1012.3
20260506210450 66 202 14.8 20.9 0.00 0.00 0.00 59 1012.5
20260506205948 66 209 13.0 24.3 0.00 0.00 0.00 59 1012.5
20260506205444 66 204 13.9 25.2 0.00 0.00 0.00 59 1012.4
20260506204940 66 203 16.5 21.7 0.00 0.00 0.00 59 1012.3
20260506204438 66 219 16.5 25.2 0.00 0.00 0.00 59 1012.4
20260506203935 66 199 20.9 26.1 0.00 0.00 0.00 58 1012.2
20260506203432 66 202 16.5 22.6 0.00 0.00 0.00 58 1012.3
20260506202929 66 203 17.4 23.5 0.00 0.00 0.00 57 1012.3
20260506202426 66 208 9.6 21.7 0.00 0.00 0.00 57 1012.1
20260506201922 66 207 15.6 27.8 0.00 0.00 0.00 57 1012.1